Location: Bratislava
(48.1500°N, 17.1170°E)
Time: 06:47:56
(UTC+02:00)

N. Korean satellite - Pass Details

Date: 01 February 2019
Orbit: 457 x 508 km, 97.2° (Epoch: 19 April)

Event Time Altitude Azimuth Distance (km) Brightness Sun altitude
Rises 17:49:08 0° 190° (S) 2,600 10.6 -10.0°
Reaches altitude 10° 17:51:24 10° 201° (SSW) 1,723 9.9 -10.4°
Maximum altitude 17:54:42 30° 264° (W) 935 8.9 -10.9°
Drops below altitude 10° 17:58:03 10° 327° (NNW) 1,738 9.6 -11.5°
Sets 18:00:21 0° 339° (NNW) 2,627 10.4 -11.8°
